TimeEDT,TemperatureF,Dew PointF,Humidity,Sea Level PressureIn,VisibilityMPH,Wind Direction,Wind SpeedMPH,Gust SpeedMPH,PrecipitationIn,Events,Conditions,WindDirDegrees,DateUTC
12:16 AM,50.4,48.6,94,30.09,10.0,Calm,Calm,-,N/A,,Clear,0,2013-08-05 04:16:00
12:36 AM,48.9,48.2,97,30.10,10.0,Calm,Calm,-,N/A,,Clear,0,2013-08-05 04:36:00
12:56 AM,48.9,48.4,98,30.09,10.0,Calm,Calm,-,N/A,,Clear,0,2013-08-05 04:56:00
1:16 AM,48.7,48.7,100,30.09,10.0,Calm,Calm,-,N/A,,Clear,0,2013-08-05 05:16:00
1:36 AM,47.5,47.5,100,30.09,10.0,Calm,Calm,-,N/A,,Clear,0,2013-08-05 05:36:00
1:56 AM,46.2,46.2,100,30.09,10.0,Calm,Calm,-,N/A,,Clear,0,2013-08-05 05:56:00
2:16 AM,47.1,47.1,100,30.09,10.0,Calm,Calm,-,N/A,,Clear,0,2013-08-05 06:16:00
2:36 AM,46.2,46.2,100,30.09,4.0,Calm,Calm,-,N/A,,Clear,0,2013-08-05 06:36:00
2:56 AM,46.4,46.4,100,30.09,10.0,Calm,Calm,-,N/A,,Clear,0,2013-08-05 06:56:00
3:16 AM,45.5,45.5,100,30.08,7.0,Calm,Calm,-,N/A,,Clear,0,2013-08-05 07:16:00
3:36 AM,46.4,46.4,100,30.08,7.0,Calm,Calm,-,N/A,,Clear,0,2013-08-05 07:36:00
3:56 AM,46.6,46.6,100,30.08,10.0,Calm,Calm,-,N/A,,Clear,0,2013-08-05 07:56:00
4:16 AM,46.0,46.0,100,30.08,10.0,Calm,Calm,-,N/A,,Clear,0,2013-08-05 08:16:00
4:36 AM,45.9,45.9,100,30.08,10.0,Calm,Calm,-,N/A,,Clear,0,2013-08-05 08:36:00
4:56 AM,46.4,46.4,100,30.07,10.0,Calm,Calm,-,N/A,,Clear,0,2013-08-05 08:56:00
5:16 AM,45.9,45.9,100,30.07,10.0,Calm,Calm,-,N/A,,Clear,0,2013-08-05 09:16:00
5:36 AM,46.4,46.4,100,30.07,10.0,Calm,Calm,-,N/A,,Clear,0,2013-08-05 09:36:00
5:56 AM,46.2,46.2,100,30.07,10.0,Calm,Calm,-,N/A,,Clear,0,2013-08-05 09:56:00
6:16 AM,47.5,47.5,100,30.07,10.0,Calm,Calm,-,N/A,,Scattered Clouds,0,2013-08-05 10:16:00
6:36 AM,47.1,47.1,100,30.07,10.0,Calm,Calm,-,N/A,,Clear,0,2013-08-05 10:36:00
6:56 AM,47.8,47.8,100,30.08,10.0,Calm,Calm,-,N/A,,Scattered Clouds,0,2013-08-05 10:56:00
7:16 AM,48.4,48.4,100,30.07,10.0,Calm,Calm,-,N/A,,Scattered Clouds,0,2013-08-05 11:16:00
7:36 AM,49.8,49.8,100,30.08,10.0,Calm,Calm,-,N/A,,Clear,0,2013-08-05 11:36:00
7:56 AM,53.2,53.2,100,30.08,10.0,Calm,Calm,-,N/A,,Clear,0,2013-08-05 11:56:00
8:16 AM,57.9,57.6,99,30.08,10.0,South,3.5,-,N/A,,Mostly Cloudy,180,2013-08-05 12:16:00
8:36 AM,59.9,58.1,94,30.08,10.0,South,4.6,-,N/A,,Scattered Clouds,190,2013-08-05 12:36:00
8:56 AM,61.7,58.1,88,30.08,10.0,SSW,5.8,-,N/A,,Clear,200,2013-08-05 12:56:00
9:16 AM,62.1,57.0,84,30.08,10.0,South,6.9,-,N/A,,Scattered Clouds,190,2013-08-05 13:16:00
9:36 AM,63.3,57.7,82,30.07,10.0,SSE,4.6,-,N/A,,Scattered Clouds,160,2013-08-05 13:36:00
9:56 AM,63.7,57.2,79,30.07,10.0,South,5.8,-,N/A,,Scattered Clouds,170,2013-08-05 13:56:00
10:16 AM,64.4,56.7,76,30.06,10.0,SSW,6.9,-,N/A,,Clear,210,2013-08-05 14:16:00
10:36 AM,65.3,56.1,72,30.06,10.0,South,5.8,-,N/A,,Clear,190,2013-08-05 14:36:00
10:56 AM,66.2,55.9,69,30.06,10.0,South,5.8,-,N/A,,Clear,180,2013-08-05 14:56:00
11:16 AM,66.4,55.6,68,30.06,10.0,South,8.1,-,N/A,,Clear,170,2013-08-05 15:16:00
11:36 AM,66.6,54.7,66,30.06,10.0,South,9.2,-,N/A,,Clear,180,2013-08-05 15:36:00
11:56 AM,67.1,55.6,66,30.05,10.0,South,9.2,-,N/A,,Clear,190,2013-08-05 15:56:00
12:16 PM,66.4,53.8,64,30.04,10.0,South,9.2,-,N/A,,Clear,190,2013-08-05 16:16:00
12:36 PM,66.7,52.2,59,30.03,10.0,SSW,10.4,-,N/A,,Clear,210,2013-08-05 16:36:00
12:56 PM,67.8,50.7,54,30.03,10.0,SSW,8.1,-,N/A,,Clear,200,2013-08-05 16:56:00
1:15 PM,66.7,49.6,54,30.03,10.0,SSW,8.1,-,N/A,,Clear,200,2013-08-05 17:15:00
1:36 PM,65.1,55.4,71,30.02,10.0,SSE,5.8,-,N/A,,Clear,160,2013-08-05 17:36:00
1:56 PM,68.2,53.8,60,30.02,10.0,South,5.8,-,N/A,,Clear,170,2013-08-05 17:56:00
2:16 PM,68.0,52.5,58,30.01,10.0,SSE,6.9,-,N/A,,Clear,150,2013-08-05 18:16:00
2:36 PM,69.1,49.5,50,30.01,10.0,SSE,9.2,-,N/A,,Clear,150,2013-08-05 18:36:00
2:56 PM,69.4,48.2,47,30.00,10.0,SSE,8.1,-,N/A,,Clear,160,2013-08-05 18:56:00
3:16 PM,69.1,51.8,54,30.00,10.0,SSE,8.1,-,N/A,,Clear,150,2013-08-05 19:16:00
3:36 PM,68.9,52.2,55,29.99,10.0,ESE,8.1,-,N/A,,Clear,120,2013-08-05 19:36:00
3:56 PM,68.5,52.2,56,29.99,10.0,ESE,11.5,-,N/A,,Clear,120,2013-08-05 19:56:00
4:16 PM,67.5,52.2,58,29.99,10.0,SSE,9.2,-,N/A,,Clear,150,2013-08-05 20:16:00
4:36 PM,66.0,53.2,63,29.98,10.0,SSE,8.1,-,N/A,,Clear,150,2013-08-05 20:36:00
4:56 PM,65.3,56.3,73,29.98,10.0,SSE,6.9,-,N/A,,Clear,160,2013-08-05 20:56:00
5:16 PM,65.3,56.3,73,29.97,10.0,SE,6.9,16.1,N/A,,Scattered Clouds,140,2013-08-05 21:16:00
5:36 PM,65.7,56.5,72,29.97,10.0,SSE,8.1,-,N/A,,Mostly Cloudy,150,2013-08-05 21:36:00
5:56 PM,65.3,57.0,75,29.97,10.0,SSE,9.2,-,N/A,,Overcast,150,2013-08-05 21:56:00
6:16 PM,64.4,57.2,77,29.97,10.0,SE,6.9,-,N/A,,Overcast,140,2013-08-05 22:16:00
6:36 PM,64.0,57.4,79,29.96,10.0,SE,4.6,-,N/A,,Overcast,130,2013-08-05 22:36:00
6:56 PM,63.5,57.2,80,29.96,10.0,SSE,5.8,-,N/A,,Overcast,150,2013-08-05 22:56:00
7:16 PM,62.8,57.9,84,29.95,10.0,SSE,5.8,-,N/A,Rain,Light Rain,150,2013-08-05 23:16:00
7:36 PM,62.6,58.1,85,29.95,10.0,Calm,Calm,-,N/A,,Light Drizzle,0,2013-08-05 23:36:00
7:56 PM,62.2,58.3,87,29.95,10.0,SSE,4.6,-,N/A,Rain,Light Rain,160,2013-08-05 23:56:00
8:16 PM,61.7,58.3,89,29.94,10.0,SSE,3.5,-,N/A,Rain,Light Rain,150,2013-08-06 00:16:00
8:36 PM,61.2,59.0,93,29.94,10.0,SSE,3.5,-,N/A,,Overcast,160,2013-08-06 00:36:00
8:56 PM,61.0,59.2,94,29.94,10.0,Calm,Calm,-,N/A,,Overcast,0,2013-08-06 00:56:00
9:16 PM,60.8,59.2,94,29.93,10.0,Calm,Calm,-,N/A,,Overcast,0,2013-08-06 01:16:00
9:36 PM,60.8,59.2,94,29.93,10.0,Calm,Calm,-,N/A,,Overcast,0,2013-08-06 01:36:00
9:56 PM,60.6,59.2,95,29.93,10.0,Calm,Calm,-,N/A,,Overcast,0,2013-08-06 01:56:00
10:16 PM,60.6,59.4,96,29.93,10.0,Calm,Calm,-,N/A,,Overcast,0,2013-08-06 02:16:00
10:36 PM,60.4,59.4,96,29.93,-9999.0,Calm,Calm,-,N/A,,Overcast,0,2013-08-06 02:36:00
10:55 PM,60.3,59.5,97,29.93,10.0,Calm,Calm,-,N/A,,Overcast,0,2013-08-06 02:55:00
11:16 PM,61.0,59.5,95,29.92,10.0,Calm,Calm,-,N/A,,Overcast,0,2013-08-06 03:16:00
11:36 PM,59.9,59.2,97,29.92,10.0,Calm,Calm,-,N/A,,Overcast,0,2013-08-06 03:36:00
11:56 PM,60.3,59.9,99,29.91,10.0,Calm,Calm,-,N/A,,Overcast,0,2013-08-06 03:56:00